Year,Month,Day,Hour,Minute,Value (Times are PST for temperature in C)
2004,06,19,00,00,19.60
2004,06,19,00,01,19.60
2004,06,19,00,02,19.60
2004,06,19,00,03,19.60
2004,06,19,00,04,19.70
2004,06,19,00,05,19.80
2004,06,19,00,06,19.90
2004,06,19,00,07,19.90
2004,06,19,00,08,19.90
2004,06,19,00,09,19.90
2004,06,19,00,10,19.90
2004,06,19,00,11,19.90
2004,06,19,00,12,19.90
2004,06,19,00,13,20.10
2004,06,19,00,14,20.20
2004,06,19,00,15,20.20
2004,06,19,00,16,20.30
2004,06,19,00,17,20.30
2004,06,19,00,18,20.40
2004,06,19,00,19,20.50
2004,06,19,00,20,20.50
2004,06,19,00,21,20.50
2004,06,19,00,22,20.50
2004,06,19,00,23,20.50
2004,06,19,00,24,20.50
2004,06,19,00,25,20.50
2004,06,19,00,26,20.50
2004,06,19,00,27,20.50
2004,06,19,00,28,20.50
2004,06,19,00,29,20.50
2004,06,19,00,30,20.50
2004,06,19,00,31,20.50
2004,06,19,00,32,20.50
2004,06,19,00,33,20.50
2004,06,19,00,34,20.40
2004,06,19,00,35,20.40
2004,06,19,00,36,20.30
2004,06,19,00,37,20.30
2004,06,19,00,38,20.20
2004,06,19,00,39,20.20
2004,06,19,00,40,20.20
2004,06,19,00,41,20.20
2004,06,19,00,42,20.30
2004,06,19,00,43,20.30
2004,06,19,00,44,20.40
2004,06,19,00,45,20.40
2004,06,19,00,46,20.50
2004,06,19,00,47,20.50
2004,06,19,00,48,20.60
2004,06,19,00,49,20.70
2004,06,19,00,50,20.70
2004,06,19,00,51,20.80
2004,06,19,00,52,20.80
2004,06,19,00,53,20.90
2004,06,19,00,54,20.90
2004,06,19,00,55,21.00
2004,06,19,00,56,21.00
2004,06,19,00,57,21.10
2004,06,19,00,58,21.10
2004,06,19,00,59,21.10
2004,06,19,01,00,21.10
2004,06,19,01,01,21.00
2004,06,19,01,02,20.90
2004,06,19,01,03,20.80
2004,06,19,01,04,20.70
2004,06,19,01,05,20.60
2004,06,19,01,06,20.50
2004,06,19,01,07,20.50
2004,06,19,01,08,20.40
2004,06,19,01,09,20.40
2004,06,19,01,10,20.40
2004,06,19,01,11,20.40
2004,06,19,01,12,20.40
2004,06,19,01,13,20.50
2004,06,19,01,14,20.50
2004,06,19,01,15,20.50
2004,06,19,01,16,20.60
2004,06,19,01,17,20.70
2004,06,19,01,18,20.70
2004,06,19,01,19,20.70
2004,06,19,01,20,20.80
2004,06,19,01,21,20.80
2004,06,19,01,22,20.90
2004,06,19,01,23,20.90
2004,06,19,01,24,21.00
2004,06,19,01,25,21.00
2004,06,19,01,26,21.10
2004,06,19,01,27,21.20
2004,06,19,01,28,21.20
2004,06,19,01,29,21.20
2004,06,19,01,30,21.30
2004,06,19,01,31,21.30
2004,06,19,01,32,21.30
2004,06,19,01,33,21.30
2004,06,19,01,34,21.30
2004,06,19,01,35,21.30
2004,06,19,01,36,21.30
2004,06,19,01,37,21.30
2004,06,19,01,38,21.20
2004,06,19,01,39,21.20
2004,06,19,01,40,21.20
2004,06,19,01,41,21.10
2004,06,19,01,42,21.00
2004,06,19,01,43,21.00
2004,06,19,01,44,20.90
2004,06,19,01,45,20.90
2004,06,19,01,46,20.80
2004,06,19,01,47,20.70
2004,06,19,01,48,20.70
2004,06,19,01,49,20.60
2004,06,19,01,50,20.50
2004,06,19,01,51,20.50
2004,06,19,01,52,20.40
2004,06,19,01,53,20.40
2004,06,19,01,54,20.40
2004,06,19,01,55,20.30
2004,06,19,01,56,20.20
2004,06,19,01,57,20.20
2004,06,19,01,58,20.00
2004,06,19,01,59,19.90
2004,06,19,02,00,19.80
2004,06,19,02,01,19.60
2004,06,19,02,02,19.50
2004,06,19,02,03,19.30
2004,06,19,02,04,19.10
2004,06,19,02,05,19.00
2004,06,19,02,06,18.80
2004,06,19,02,07,18.70
2004,06,19,02,08,18.60
2004,06,19,02,09,18.60
2004,06,19,02,10,18.50
2004,06,19,02,11,18.50
2004,06,19,02,12,18.40
2004,06,19,02,13,18.30
2004,06,19,02,14,18.20
2004,06,19,02,15,18.20
2004,06,19,02,16,18.10
2004,06,19,02,17,18.10
2004,06,19,02,18,18.00
2004,06,19,02,19,17.90
2004,06,19,02,20,17.90
2004,06,19,02,21,17.90
2004,06,19,02,22,17.90
2004,06,19,02,23,17.90
2004,06,19,02,24,17.90
2004,06,19,02,25,17.80
2004,06,19,02,26,17.80
2004,06,19,02,27,17.70
2004,06,19,02,28,17.60
2004,06,19,02,29,17.50
2004,06,19,02,30,17.40
2004,06,19,02,31,17.40
2004,06,19,02,32,17.40
2004,06,19,02,33,17.50
2004,06,19,02,34,17.50
2004,06,19,02,35,17.60
2004,06,19,02,36,17.70
2004,06,19,02,37,17.70
2004,06,19,02,38,17.80
2004,06,19,02,39,17.80
2004,06,19,02,40,17.80
2004,06,19,02,41,17.90
2004,06,19,02,42,17.90
2004,06,19,02,43,17.90
2004,06,19,02,44,17.90
2004,06,19,02,45,17.80
2004,06,19,02,46,17.80
2004,06,19,02,47,17.80
2004,06,19,02,48,17.80
2004,06,19,02,49,17.80
2004,06,19,02,50,17.80
2004,06,19,02,51,17.90
2004,06,19,02,52,17.80
2004,06,19,02,53,17.80
2004,06,19,02,54,17.70
2004,06,19,02,55,17.50
2004,06,19,02,56,17.40
2004,06,19,02,57,17.30
2004,06,19,02,58,17.20
2004,06,19,02,59,17.20
2004,06,19,03,00,17.20
2004,06,19,03,01,17.10
2004,06,19,03,02,17.00
2004,06,19,03,03,17.00
2004,06,19,03,04,16.90
2004,06,19,03,05,16.80
2004,06,19,03,06,16.70
2004,06,19,03,07,16.70
2004,06,19,03,08,16.70
2004,06,19,03,09,16.70
2004,06,19,03,10,16.70
2004,06,19,03,11,16.70
2004,06,19,03,12,16.70
2004,06,19,03,13,16.70
2004,06,19,03,14,16.70
2004,06,19,03,15,16.70
2004,06,19,03,16,16.70
2004,06,19,03,17,16.70
2004,06,19,03,18,16.60
2004,06,19,03,19,16.60
2004,06,19,03,20,16.50
2004,06,19,03,21,16.40
2004,06,19,03,22,16.40
2004,06,19,03,23,16.40
2004,06,19,03,24,16.40
2004,06,19,03,25,16.40
2004,06,19,03,26,16.40
2004,06,19,03,27,16.40
2004,06,19,03,28,16.40
2004,06,19,03,29,16.40
2004,06,19,03,30,16.40
2004,06,19,03,31,16.40
2004,06,19,03,32,16.30
2004,06,19,03,33,16.30
2004,06,19,03,34,16.30
2004,06,19,03,35,16.30
2004,06,19,03,36,16.40
2004,06,19,03,37,16.40
2004,06,19,03,38,16.40
2004,06,19,03,39,16.60
2004,06,19,03,40,16.60
2004,06,19,03,41,16.70
2004,06,19,03,42,16.80
2004,06,19,03,43,16.90
2004,06,19,03,44,17.00
2004,06,19,03,45,17.10
2004,06,19,03,46,17.10
2004,06,19,03,47,17.20
2004,06,19,03,48,17.30
2004,06,19,03,49,17.30
2004,06,19,03,50,17.30
2004,06,19,03,51,17.10
2004,06,19,03,52,17.00
2004,06,19,03,53,16.80
2004,06,19,03,54,16.70
2004,06,19,03,55,16.70
2004,06,19,03,56,16.70
2004,06,19,03,57,16.70
2004,06,19,03,58,16.70
2004,06,19,03,59,16.70
2004,06,19,04,00,16.60
2004,06,19,04,01,16.60
2004,06,19,04,02,16.60
2004,06,19,04,03,16.60
2004,06,19,04,04,16.60
2004,06,19,04,05,16.60
2004,06,19,04,06,16.60
2004,06,19,04,07,16.60
2004,06,19,04,08,16.60
2004,06,19,04,09,16.50
2004,06,19,04,10,16.40
2004,06,19,04,11,16.40
2004,06,19,04,12,16.40
2004,06,19,04,13,16.50
2004,06,19,04,14,16.60
2004,06,19,04,15,16.70
2004,06,19,04,16,16.70
2004,06,19,04,17,16.80
2004,06,19,04,18,16.80
2004,06,19,04,19,16.80
2004,06,19,04,20,16.80
2004,06,19,04,21,16.70
2004,06,19,04,22,16.70
2004,06,19,04,23,16.70
2004,06,19,04,24,16.70
2004,06,19,04,25,16.70
2004,06,19,04,26,16.70
2004,06,19,04,27,16.70
2004,06,19,04,28,16.80
2004,06,19,04,29,16.80
2004,06,19,04,30,16.80
2004,06,19,04,31,16.70
2004,06,19,04,32,16.70
2004,06,19,04,33,16.60
2004,06,19,04,34,16.50
2004,06,19,04,35,16.40
2004,06,19,04,36,16.30
2004,06,19,04,37,16.20
2004,06,19,04,38,16.10
2004,06,19,04,39,16.10
2004,06,19,04,40,16.10
2004,06,19,04,41,16.10
2004,06,19,04,42,16.00
2004,06,19,04,43,15.90
2004,06,19,04,44,15.90
2004,06,19,04,45,15.90
2004,06,19,04,46,15.80
2004,06,19,04,47,15.90
2004,06,19,04,48,15.80
2004,06,19,04,49,15.80
2004,06,19,04,50,15.80
2004,06,19,04,51,15.80
2004,06,19,04,52,15.80
2004,06,19,04,53,15.80
2004,06,19,04,54,15.80
2004,06,19,04,55,15.70
2004,06,19,04,56,15.70
2004,06,19,04,57,15.70
2004,06,19,04,58,15.60
2004,06,19,04,59,15.60
2004,06,19,05,00,15.70
2004,06,19,05,01,15.80
2004,06,19,05,02,15.80
2004,06,19,05,03,15.80
2004,06,19,05,04,15.90
2004,06,19,05,05,15.90
2004,06,19,05,06,16.00
2004,06,19,05,07,16.00
2004,06,19,05,08,16.00
2004,06,19,05,09,15.90
2004,06,19,05,10,15.80
2004,06,19,05,11,15.80
2004,06,19,05,12,15.80
2004,06,19,05,13,15.80
2004,06,19,05,14,15.70
2004,06,19,05,15,15.70
2004,06,19,05,16,15.60
2004,06,19,05,17,15.60
2004,06,19,05,18,15.60
2004,06,19,05,19,15.50
2004,06,19,05,20,15.50
2004,06,19,05,21,15.40
2004,06,19,05,22,15.40
2004,06,19,05,23,15.40
2004,06,19,05,24,15.50
2004,06,19,05,25,15.50
2004,06,19,05,26,15.50
2004,06,19,05,27,15.60
2004,06,19,05,28,15.60
2004,06,19,05,29,15.70
2004,06,19,05,30,15.60
2004,06,19,05,31,15.60
2004,06,19,05,32,15.50
2004,06,19,05,33,15.40
2004,06,19,05,34,15.40
2004,06,19,05,35,15.40
2004,06,19,05,36,15.50
2004,06,19,05,37,15.60
2004,06,19,05,38,15.70
2004,06,19,05,39,15.80
2004,06,19,05,40,15.90
2004,06,19,05,41,15.90
2004,06,19,05,42,16.00
2004,06,19,05,43,16.10
2004,06,19,05,44,16.00
2004,06,19,05,45,15.90
2004,06,19,05,46,15.80
2004,06,19,05,47,15.80
2004,06,19,05,48,15.80
2004,06,19,05,49,15.80
2004,06,19,05,50,15.70
2004,06,19,05,51,15.70
2004,06,19,05,52,15.60
2004,06,19,05,53,15.50
2004,06,19,05,54,15.50
2004,06,19,05,55,15.50
2004,06,19,05,56,15.40
2004,06,19,05,57,15.40
2004,06,19,05,58,15.40
2004,06,19,05,59,15.50
2004,06,19,06,00,15.50
2004,06,19,06,01,15.50
2004,06,19,06,02,15.60
2004,06,19,06,03,15.60
2004,06,19,06,04,15.60
2004,06,19,06,05,15.70
2004,06,19,06,06,15.80
2004,06,19,06,07,15.80
2004,06,19,06,08,15.80
2004,06,19,06,09,15.80
2004,06,19,06,10,15.80
2004,06,19,06,11,15.90
2004,06,19,06,12,16.00
2004,06,19,06,13,16.20
2004,06,19,06,14,16.30
2004,06,19,06,15,16.40
2004,06,19,06,16,16.50
2004,06,19,06,17,16.60
2004,06,19,06,18,16.70
2004,06,19,06,19,16.70
2004,06,19,06,20,16.70
2004,06,19,06,21,16.70
2004,06,19,06,22,16.80
2004,06,19,06,23,16.90
2004,06,19,06,24,17.00
2004,06,19,06,25,17.10
2004,06,19,06,26,17.20
2004,06,19,06,27,17.30
2004,06,19,06,28,17.40
2004,06,19,06,29,17.40
2004,06,19,06,30,17.50
2004,06,19,06,31,17.40
2004,06,19,06,32,17.30
2004,06,19,06,33,17.20
2004,06,19,06,34,17.10
2004,06,19,06,35,17.00
2004,06,19,06,36,16.90
2004,06,19,06,37,16.80
2004,06,19,06,38,16.70
2004,06,19,06,39,16.70
2004,06,19,06,40,16.70
2004,06,19,06,41,16.60
2004,06,19,06,42,16.50
2004,06,19,06,43,16.60
2004,06,19,06,44,16.60
2004,06,19,06,45,16.60
2004,06,19,06,46,16.50
2004,06,19,06,47,16.40
2004,06,19,06,48,16.50
2004,06,19,06,49,16.60
2004,06,19,06,50,16.70
2004,06,19,06,51,16.80
2004,06,19,06,52,16.90
2004,06,19,06,53,17.00
2004,06,19,06,54,17.10
2004,06,19,06,55,17.30
2004,06,19,06,56,17.30
2004,06,19,06,57,17.30
2004,06,19,06,58,17.30
2004,06,19,06,59,17.30
2004,06,19,07,00,17.40
2004,06,19,07,01,17.40
2004,06,19,07,02,17.50
2004,06,19,07,03,17.50
2004,06,19,07,04,17.50
2004,06,19,07,05,17.60
2004,06,19,07,06,17.60
2004,06,19,07,07,17.60
2004,06,19,07,08,17.50
2004,06,19,07,09,17.50
2004,06,19,07,10,17.50
2004,06,19,07,11,17.50
2004,06,19,07,12,17.60
2004,06,19,07,13,17.70
2004,06,19,07,14,17.80
2004,06,19,07,15,17.90
2004,06,19,07,16,17.90
2004,06,19,07,17,18.10
2004,06,19,07,18,18.10
2004,06,19,07,19,18.20
2004,06,19,07,20,18.40
2004,06,19,07,21,18.50
2004,06,19,07,22,18.60
2004,06,19,07,23,18.80
2004,06,19,07,24,18.90
2004,06,19,07,25,19.00
2004,06,19,07,26,19.20
2004,06,19,07,27,19.30
2004,06,19,07,28,19.40
2004,06,19,07,29,19.40
2004,06,19,07,30,19.50
2004,06,19,07,31,19.50
2004,06,19,07,32,19.60
2004,06,19,07,33,19.60
2004,06,19,07,34,19.60
2004,06,19,07,35,19.60
2004,06,19,07,36,19.70
2004,06,19,07,37,19.80
2004,06,19,07,38,19.90
2004,06,19,07,39,19.90
2004,06,19,07,40,20.00
2004,06,19,07,41,20.10
2004,06,19,07,42,20.10
2004,06,19,07,43,20.20
2004,06,19,07,44,20.20
2004,06,19,07,45,20.20
2004,06,19,07,46,20.30
2004,06,19,07,47,20.40
2004,06,19,07,48,20.40
2004,06,19,07,49,20.40
2004,06,19,07,50,20.40
2004,06,19,07,51,20.40
2004,06,19,07,52,20.40
2004,06,19,07,53,20.40
2004,06,19,07,54,20.40
2004,06,19,07,55,20.40
2004,06,19,07,56,20.50
2004,06,19,07,57,20.50
2004,06,19,07,58,20.60
2004,06,19,07,59,20.70
2004,06,19,08,00,20.80
2004,06,19,08,01,20.80
2004,06,19,08,02,20.80
2004,06,19,08,03,20.80
2004,06,19,08,04,20.80
2004,06,19,08,05,20.80
2004,06,19,08,06,20.80
2004,06,19,08,07,20.90
2004,06,19,08,08,20.90
2004,06,19,08,09,21.00
2004,06,19,08,10,21.00
2004,06,19,08,11,21.00
2004,06,19,08,12,21.00
2004,06,19,08,13,21.00
2004,06,19,08,14,21.10
2004,06,19,08,15,21.10
2004,06,19,08,16,21.10
2004,06,19,08,17,21.10
2004,06,19,08,18,21.10
2004,06,19,08,19,21.10
2004,06,19,08,20,21.20
2004,06,19,08,21,21.30
2004,06,19,08,22,21.30
2004,06,19,08,23,21.20
2004,06,19,08,24,21.30
2004,06,19,08,25,21.30
2004,06,19,08,26,21.50
2004,06,19,08,27,21.60
2004,06,19,08,28,21.60
2004,06,19,08,29,21.60
2004,06,19,08,30,21.50
2004,06,19,08,31,21.40
2004,06,19,08,32,21.40
2004,06,19,08,33,21.40
2004,06,19,08,34,21.30
2004,06,19,08,35,21.30
2004,06,19,08,36,21.30
2004,06,19,08,37,21.30
2004,06,19,08,38,21.30
2004,06,19,08,39,21.30
2004,06,19,08,40,21.30
2004,06,19,08,41,21.30
2004,06,19,08,42,21.30
2004,06,19,08,43,21.40
2004,06,19,08,44,21.40
2004,06,19,08,45,21.40
2004,06,19,08,46,21.40
2004,06,19,08,47,21.30
2004,06,19,08,48,21.40
2004,06,19,08,49,21.40
2004,06,19,08,50,21.50
2004,06,19,08,51,21.50
2004,06,19,08,52,21.60
2004,06,19,08,53,21.60
2004,06,19,08,54,21.70
2004,06,19,08,55,21.70
2004,06,19,08,56,21.80
2004,06,19,08,57,21.80
2004,06,19,08,58,21.90
2004,06,19,08,59,21.90
2004,06,19,09,00,21.90
2004,06,19,09,01,21.80
2004,06,19,09,02,21.80
2004,06,19,09,03,21.80
2004,06,19,09,04,21.70
2004,06,19,09,05,21.60
2004,06,19,09,06,21.60
2004,06,19,09,07,21.60
2004,06,19,09,08,21.60
2004,06,19,09,09,21.60
2004,06,19,09,10,21.70
2004,06,19,09,11,21.70
2004,06,19,09,12,21.80
2004,06,19,09,13,21.80
2004,06,19,09,14,21.80
2004,06,19,09,15,21.90
2004,06,19,09,16,22.00
2004,06,19,09,17,22.10
2004,06,19,09,18,22.10
2004,06,19,09,19,22.20
2004,06,19,09,20,22.30
2004,06,19,09,21,22.40
2004,06,19,09,22,22.50
2004,06,19,09,23,22.60
2004,06,19,09,24,22.70
2004,06,19,09,25,22.60
2004,06,19,09,26,22.40
2004,06,19,09,27,22.20
2004,06,19,09,28,22.10
2004,06,19,09,29,22.10
2004,06,19,09,30,22.10
2004,06,19,09,31,22.10
2004,06,19,09,32,22.20
2004,06,19,09,33,22.40
2004,06,19,09,34,22.30
2004,06,19,09,35,22.30
2004,06,19,09,36,22.40
2004,06,19,09,37,22.30
2004,06,19,09,38,22.30
2004,06,19,09,39,22.30
2004,06,19,09,40,22.30
2004,06,19,09,41,22.30
2004,06,19,09,42,22.30
2004,06,19,09,43,22.30
2004,06,19,09,44,22.20
2004,06,19,09,45,22.20
2004,06,19,09,46,22.20
2004,06,19,09,47,22.20
2004,06,19,09,48,22.20
2004,06,19,09,49,22.20
2004,06,19,09,50,22.20
2004,06,19,09,51,22.20
2004,06,19,09,52,22.30
2004,06,19,09,53,22.30
2004,06,19,09,54,22.30
2004,06,19,09,55,22.30
2004,06,19,09,56,22.40
2004,06,19,09,57,22.30
2004,06,19,09,58,22.30
2004,06,19,09,59,22.30
2004,06,19,10,00,22.30
2004,06,19,10,01,22.30
2004,06,19,10,02,22.40
2004,06,19,10,03,22.50
2004,06,19,10,04,22.60
2004,06,19,10,05,22.60
2004,06,19,10,06,22.70
2004,06,19,10,07,22.80
2004,06,19,10,08,22.90
2004,06,19,10,09,22.90
2004,06,19,10,10,22.70
2004,06,19,10,11,22.70
2004,06,19,10,12,22.70
2004,06,19,10,13,22.60
2004,06,19,10,14,22.60
2004,06,19,10,15,22.60
2004,06,19,10,16,22.50
2004,06,19,10,17,22.50
2004,06,19,10,18,22.60
2004,06,19,10,19,22.60
2004,06,19,10,20,22.70
2004,06,19,10,21,22.70
2004,06,19,10,22,22.70
2004,06,19,10,23,22.80
2004,06,19,10,24,23.00
2004,06,19,10,25,23.10
2004,06,19,10,26,23.20
2004,06,19,10,27,23.50
2004,06,19,10,28,23.50
2004,06,19,10,29,23.50
2004,06,19,10,30,23.60
2004,06,19,10,31,23.70
2004,06,19,10,32,23.70
2004,06,19,10,33,23.70
2004,06,19,10,34,23.70
2004,06,19,10,35,23.70
2004,06,19,10,36,23.70
2004,06,19,10,37,23.70
2004,06,19,10,38,23.80
2004,06,19,10,39,23.90
2004,06,19,10,40,23.90
2004,06,19,10,41,23.80
2004,06,19,10,42,24.00
2004,06,19,10,43,23.90
2004,06,19,10,44,23.80
2004,06,19,10,45,23.70
2004,06,19,10,46,23.70
2004,06,19,10,47,23.70
2004,06,19,10,48,23.60
2004,06,19,10,49,23.50
2004,06,19,10,50,23.40
2004,06,19,10,51,23.30
2004,06,19,10,52,23.40
2004,06,19,10,53,23.30
2004,06,19,10,54,23.30
2004,06,19,10,55,23.20
2004,06,19,10,56,23.30
2004,06,19,10,57,23.30
2004,06,19,10,58,23.40
2004,06,19,10,59,23.50
2004,06,19,11,00,23.40
2004,06,19,11,01,23.40
2004,06,19,11,02,23.50
2004,06,19,11,03,23.50
2004,06,19,11,04,23.60
2004,06,19,11,05,23.60
2004,06,19,11,06,23.50
2004,06,19,11,07,23.40
2004,06,19,11,08,23.40
2004,06,19,11,09,23.50
2004,06,19,11,10,23.50
2004,06,19,11,11,23.50
2004,06,19,11,12,23.60
2004,06,19,11,13,23.60
2004,06,19,11,14,23.70
2004,06,19,11,15,23.60
2004,06,19,11,16,23.70
2004,06,19,11,17,23.70
2004,06,19,11,18,23.70
2004,06,19,11,19,23.70
2004,06,19,11,20,23.80
2004,06,19,11,21,23.90
2004,06,19,11,22,23.80
2004,06,19,11,23,23.70
2004,06,19,11,24,23.60
2004,06,19,11,25,23.60
2004,06,19,11,26,23.70
2004,06,19,11,27,23.80
2004,06,19,11,28,23.90
2004,06,19,11,29,24.20
2004,06,19,11,30,24.30
2004,06,19,11,31,24.20
2004,06,19,11,32,24.20
2004,06,19,11,33,24.20
2004,06,19,11,34,24.20
2004,06,19,11,35,24.20
2004,06,19,11,36,24.30
2004,06,19,11,37,24.40
2004,06,19,11,38,24.60
2004,06,19,11,39,24.70
2004,06,19,11,40,24.80
2004,06,19,11,41,24.90
2004,06,19,11,42,24.90
2004,06,19,11,43,24.90
2004,06,19,11,44,24.70
2004,06,19,11,45,24.50
2004,06,19,11,46,24.40
2004,06,19,11,47,24.40
2004,06,19,11,48,24.20
2004,06,19,11,49,24.20
2004,06,19,11,50,24.10
2004,06,19,11,51,24.10
2004,06,19,11,52,24.10
2004,06,19,11,53,24.20
2004,06,19,11,54,24.40
2004,06,19,11,55,24.40
2004,06,19,11,56,24.40
2004,06,19,11,57,24.50
2004,06,19,11,58,24.60
2004,06,19,11,59,24.80
2004,06,19,12,00,24.90
2004,06,19,12,01,25.10
2004,06,19,12,02,25.30
2004,06,19,12,03,25.20
2004,06,19,12,04,25.20
2004,06,19,12,05,25.10
2004,06,19,12,06,25.10
2004,06,19,12,07,25.10
2004,06,19,12,08,25.30
2004,06,19,12,09,25.40
2004,06,19,12,10,25.70
2004,06,19,12,11,25.90
2004,06,19,12,12,26.10
2004,06,19,12,13,26.20
2004,06,19,12,14,26.50
2004,06,19,12,15,26.60
2004,06,19,12,16,26.60
2004,06,19,12,17,26.70
2004,06,19,12,18,26.90
2004,06,19,12,19,26.90
2004,06,19,12,20,26.90
2004,06,19,12,21,27.00
2004,06,19,12,22,27.00
2004,06,19,12,23,27.00
2004,06,19,12,24,27.00
2004,06,19,12,25,26.90
2004,06,19,12,26,26.90
2004,06,19,12,27,26.70
2004,06,19,12,28,26.40
2004,06,19,12,29,26.20
2004,06,19,12,30,26.00
2004,06,19,12,31,25.90
2004,06,19,12,32,25.80
2004,06,19,12,33,25.70
2004,06,19,12,34,25.90
2004,06,19,12,35,25.90
2004,06,19,12,36,25.70
2004,06,19,12,37,25.40
2004,06,19,12,38,25.50
2004,06,19,12,39,25.70
2004,06,19,12,40,25.70
2004,06,19,12,41,25.60
2004,06,19,12,42,25.40
2004,06,19,12,43,25.40
2004,06,19,12,44,25.40
2004,06,19,12,45,25.30
2004,06,19,12,46,25.40
2004,06,19,12,47,25.40
2004,06,19,12,48,25.40
2004,06,19,12,49,25.20
2004,06,19,12,50,25.20
2004,06,19,12,51,25.20
2004,06,19,12,52,25.20
2004,06,19,12,53,25.30
2004,06,19,12,54,25.60
2004,06,19,12,55,25.80
2004,06,19,12,56,26.10
2004,06,19,12,57,26.10
2004,06,19,12,58,26.10
2004,06,19,12,59,26.20
2004,06,19,13,00,26.50
2004,06,19,13,01,26.60
2004,06,19,13,02,26.60
2004,06,19,13,03,26.70
2004,06,19,13,04,26.80
2004,06,19,13,05,26.80
2004,06,19,13,06,26.70
2004,06,19,13,07,26.60
2004,06,19,13,08,26.60
2004,06,19,13,09,26.70
2004,06,19,13,10,26.80
2004,06,19,13,11,26.90
2004,06,19,13,12,27.00
2004,06,19,13,13,27.20
2004,06,19,13,14,27.30
2004,06,19,13,15,27.30
2004,06,19,13,16,27.30
2004,06,19,13,17,27.30
2004,06,19,13,18,27.30
2004,06,19,13,19,27.20
2004,06,19,13,20,27.30
2004,06,19,13,21,27.30
2004,06,19,13,22,27.20
2004,06,19,13,23,27.30
2004,06,19,13,24,27.30
2004,06,19,13,25,27.20
2004,06,19,13,26,27.00
2004,06,19,13,27,26.90
2004,06,19,13,28,26.90
2004,06,19,13,29,26.90
2004,06,19,13,30,26.90
2004,06,19,13,31,26.80
2004,06,19,13,32,26.70
2004,06,19,13,33,26.60
2004,06,19,13,34,26.60
2004,06,19,13,35,26.60
2004,06,19,13,36,26.50
2004,06,19,13,37,26.40
2004,06,19,13,38,26.40
2004,06,19,13,39,26.40
2004,06,19,13,40,26.50
2004,06,19,13,41,26.60
2004,06,19,13,42,26.60
2004,06,19,13,43,26.60
2004,06,19,13,44,26.60
2004,06,19,13,45,26.60
2004,06,19,13,46,26.60
2004,06,19,13,47,26.60
2004,06,19,13,48,26.60
2004,06,19,13,49,26.60
2004,06,19,13,50,26.60
2004,06,19,13,51,26.60
2004,06,19,13,52,26.70
2004,06,19,13,53,26.70
2004,06,19,13,54,26.60
2004,06,19,13,55,26.60
2004,06,19,13,56,26.60
2004,06,19,13,57,26.70
2004,06,19,13,58,26.90
2004,06,19,13,59,26.80
2004,06,19,14,00,26.80
2004,06,19,14,01,26.80
2004,06,19,14,02,27.00
2004,06,19,14,03,27.20
2004,06,19,14,04,27.20
2004,06,19,14,05,27.20
2004,06,19,14,06,27.20
2004,06,19,14,07,27.40
2004,06,19,14,08,27.50
2004,06,19,14,09,27.50
2004,06,19,14,10,27.60
2004,06,19,14,11,27.80
2004,06,19,14,12,28.00
2004,06,19,14,13,28.10
2004,06,19,14,14,28.30
2004,06,19,14,15,28.60
2004,06,19,14,16,28.80
2004,06,19,14,17,28.90
2004,06,19,14,18,28.90
2004,06,19,14,19,29.00
2004,06,19,14,20,28.90
2004,06,19,14,21,28.90
2004,06,19,14,22,28.80
2004,06,19,14,23,28.60
2004,06,19,14,24,28.10
2004,06,19,14,25,27.80
2004,06,19,14,26,27.70
2004,06,19,14,27,27.50
2004,06,19,14,28,27.40
2004,06,19,14,29,27.30
2004,06,19,14,30,27.20
2004,06,19,14,31,27.20
2004,06,19,14,32,27.30
2004,06,19,14,33,27.30
2004,06,19,14,34,27.60
2004,06,19,14,35,27.80
2004,06,19,14,36,27.90
2004,06,19,14,37,28.00
2004,06,19,14,38,28.00
2004,06,19,14,39,28.20
2004,06,19,14,40,28.40
2004,06,19,14,41,28.70
2004,06,19,14,42,28.90
2004,06,19,14,43,29.00
2004,06,19,14,44,29.20
2004,06,19,14,45,29.50
2004,06,19,14,46,29.70
2004,06,19,14,47,29.80
2004,06,19,14,48,29.80
2004,06,19,14,49,29.90
2004,06,19,14,50,29.90
2004,06,19,14,51,30.00
2004,06,19,14,52,30.10
2004,06,19,14,53,30.10
2004,06,19,14,54,30.00
2004,06,19,14,55,29.80
2004,06,19,14,56,29.80
2004,06,19,14,57,29.80
2004,06,19,14,58,29.90
2004,06,19,14,59,29.90
2004,06,19,15,00,30.00
2004,06,19,15,01,30.10
2004,06,19,15,02,30.20
2004,06,19,15,03,30.40
2004,06,19,15,04,30.70
2004,06,19,15,05,30.70
2004,06,19,15,06,30.60
2004,06,19,15,07,30.60
2004,06,19,15,08,30.80
2004,06,19,15,09,30.80
2004,06,19,15,10,30.50
2004,06,19,15,11,30.20
2004,06,19,15,12,30.00
2004,06,19,15,13,30.00
2004,06,19,15,14,30.10
2004,06,19,15,15,30.10
2004,06,19,15,16,30.20
2004,06,19,15,17,30.20
2004,06,19,15,18,30.10
2004,06,19,15,19,29.90
2004,06,19,15,20,29.90
2004,06,19,15,21,29.90
2004,06,19,15,22,30.10
2004,06,19,15,23,30.20
2004,06,19,15,24,30.40
2004,06,19,15,25,30.40
2004,06,19,15,26,30.10
2004,06,19,15,27,29.90
2004,06,19,15,28,29.80
2004,06,19,15,29,29.70
2004,06,19,15,30,29.50
2004,06,19,15,31,29.30
2004,06,19,15,32,29.10
2004,06,19,15,33,29.10
2004,06,19,15,34,29.00
2004,06,19,15,35,28.90
2004,06,19,15,36,28.90
2004,06,19,15,37,28.70
2004,06,19,15,38,28.60
2004,06,19,15,39,28.60
2004,06,19,15,40,28.60
2004,06,19,15,41,28.60
2004,06,19,15,42,28.60
2004,06,19,15,43,28.60
2004,06,19,15,44,28.40
2004,06,19,15,45,28.20
2004,06,19,15,46,28.00
2004,06,19,15,47,28.00
2004,06,19,15,48,28.00
2004,06,19,15,49,28.10
2004,06,19,15,50,28.20
2004,06,19,15,51,28.50
2004,06,19,15,52,28.70
2004,06,19,15,53,29.00
2004,06,19,15,54,29.40
2004,06,19,15,55,29.80
2004,06,19,15,56,30.10
2004,06,19,15,57,30.20
2004,06,19,15,58,30.50
2004,06,19,15,59,30.70
2004,06,19,16,00,31.00
2004,06,19,16,01,31.10
2004,06,19,16,02,31.20
2004,06,19,16,03,31.30
2004,06,19,16,04,31.50
2004,06,19,16,05,31.70
2004,06,19,16,06,31.70
2004,06,19,16,07,31.50
2004,06,19,16,08,31.50
2004,06,19,16,09,31.50
2004,06,19,16,10,31.50
2004,06,19,16,11,31.60
2004,06,19,16,12,31.50
2004,06,19,16,13,31.70
2004,06,19,16,14,31.80
2004,06,19,16,15,31.70
2004,06,19,16,16,31.60
2004,06,19,16,17,31.80
2004,06,19,16,18,31.90
2004,06,19,16,19,31.90
2004,06,19,16,20,31.80
2004,06,19,16,21,31.80
2004,06,19,16,22,31.80
2004,06,19,16,23,31.70
2004,06,19,16,24,31.70
2004,06,19,16,25,31.50
2004,06,19,16,26,31.60
2004,06,19,16,27,31.70
2004,06,19,16,28,31.80
2004,06,19,16,29,31.60
2004,06,19,16,30,31.90
2004,06,19,16,31,32.00
2004,06,19,16,32,32.10
2004,06,19,16,33,32.20
2004,06,19,16,34,32.20
2004,06,19,16,35,32.20
2004,06,19,16,36,32.10
2004,06,19,16,37,31.80
2004,06,19,16,38,31.80
2004,06,19,16,39,31.70
2004,06,19,16,40,31.50
2004,06,19,16,41,31.40
2004,06,19,16,42,31.40
2004,06,19,16,43,31.10
2004,06,19,16,44,31.00
2004,06,19,16,45,30.70
2004,06,19,16,46,30.80
2004,06,19,16,47,30.70
2004,06,19,16,48,30.50
2004,06,19,16,49,30.50
2004,06,19,16,50,30.60
2004,06,19,16,51,30.90
2004,06,19,16,52,30.90
2004,06,19,16,53,31.10
2004,06,19,16,54,31.20
2004,06,19,16,55,31.20
2004,06,19,16,56,31.50
2004,06,19,16,57,31.60
2004,06,19,16,58,31.70
2004,06,19,16,59,31.90
2004,06,19,17,00,32.00
2004,06,19,17,01,32.20
2004,06,19,17,02,32.20
2004,06,19,17,03,32.20
2004,06,19,17,04,32.20
2004,06,19,17,05,32.20
2004,06,19,17,06,32.30
2004,06,19,17,07,32.20
2004,06,19,17,08,32.30
2004,06,19,17,09,32.40
2004,06,19,17,10,32.40
2004,06,19,17,11,32.30
2004,06,19,17,12,32.30
2004,06,19,17,13,32.20
2004,06,19,17,14,32.30
2004,06,19,17,15,32.20
2004,06,19,17,16,32.20
2004,06,19,17,17,32.20
2004,06,19,17,18,32.20
2004,06,19,17,19,32.20